Regional Weather Roundup
Issued by NWS

Home | Current Version | Previous Version | Text Only | Print | Product List | Glossary Off
Versions: 1 2 3 4 5 6 7 8 9 10 11 12 13 14 15 16 17 18 19 20 21 22 23 24 25 26 27 28 29 30 31 32 33 34 35 36 37 38 39 40 41 42 43 44 45 46 47 48 49 50

000
ASUS43 KLOT 150410
RWRIL

ILLINOIS REGIONAL WEATHER ROUNDUP
NATIONAL WEATHER SERVICE CHICAGO/ROMEOVILLE IL
1100 PM CDT SUN SEP 14 2014

NOTE: "FAIR" INDICATES FEW OR NO CLOUDS BELOW 12,000 FEET WITH NO
SIGNIFICANT WEATHER AND/OR OBSTRUCTIONS TO VISIBILITY.

* THESE STATIONS ARE NOT UNDER NWS QUALITY CONTROL. THEY ALSO MAY NOT
  REPORT WEATHER SUCH AS PRECIPITATION OR FOG.

ILZ001-002-007-009-015-016-024-150500-
NORTHWEST ILLINOIS

CITY           SKY/WX    TMP DP  RH WIND       PRES   REMARKS
MOLINE         MOCLDY    53  50  89 CALM      30.17S
STERLING*      PTCLDY    48  45  87 CALM      30.18S
SAVANNA*       PTCLDY    51  48  92 CALM      30.17S
$$

ILZ003-004-008-010-011-017-018-150500-
NORTH CENTRAL ILLINOIS

CITY           SKY/WX    TMP DP  RH WIND       PRES   REMARKS
ROCKFORD       MOCLDY    53  46  77 CALM      30.20S
FREEPORT*      PTCLDY    52  49  87 SW5       30.19S
ROCHELLE*      CLEAR     47  45  93 CALM      30.18S
DE KALB*       PTCLDY    52  44  73 W6        30.19S
PERU*          PTCLDY    55  46  73 S5        30.18S
$$

ILZ005-006-012>014-019>023-150500-
NORTHEAST ILLINOIS

CITY           SKY/WX    TMP DP  RH WIND       PRES   REMARKS
CHICAGO-OHARE  PTCLDY    53  47  79 CALM      30.18R
CHICAGO-MIDWAY PTCLDY    58  46  64 CALM      30.18S
AURORA         CLEAR     48  43  82 CALM      30.19R
LANSING*       CLEAR     49  47  93 CALM      30.19S
JOLIET*        CLEAR     48  47  95 CALM      30.19S
WAUKEGAN       PTCLDY    51  45  79 CALM      30.17S
DUPAGE AIRPORT FAIR      50  46  86 CALM      30.18R
KANKAKEE*      CLEAR     48  47  97 CALM      30.19S
WHEELING       CLEAR     53  47  79 CALM      30.19F
MORRIS*        CLEAR     50  49  99 CALM      30.18S
ROMEOVILLE*    CLEAR     50  47  90 SE3       30.18S
NORTHERLY ISL    N/A     60  43  53 S2          N/A
$$

LMZ740>746-150500-
SOUTHERN LAKE MICHIGAN

STATION/POSITION SKY/WX   TEMP    WIND        PRES    VSBY  WAVE
                          AIR SEA DIR/SP/G                  HT/PER
                          (F)     (DEG/KT/KT) (MB)    (MI)  (FT/S)
SOUTHERN BUOY              63 64  210/ 10/ 12 1021.7F         1/ 3
WAUKEGAN HARBOR            57     250/  5/  6   N/A
HARRISON CRIB              61     190/  8/  9   N/A
BURNHAM HARBOR             60     220/  3/  5   N/A
CALUMET HARBOR             57     200/  2/  3 1020.8S
MICHIGAN CITY              56     130/  6/  7   N/A
MICHIGAN CITY 6N           60 64  180/  6/  8   N/A           1
ST. JOSEPH                 61 67  150/  8/  8   N/A           1/ 2
$$

ILZ025>027-034>036-040-047-049-050-058-095>099-150500-
WEST-CENTRAL ILLINOIS

CITY           SKY/WX    TMP DP  RH WIND       PRES   REMARKS
QUINCY         CLOUDY    56  49  77 SE6       30.16F
GALESBURG*     MOCLDY    53  48  84 CALM      30.17S
MACOMB*        MOCLDY    50  48  91 CALM      30.20S
JACKSONVILLE*  CLEAR     53  49  87 CALM      30.19S
PITTSFIELD*    MOCLDY    55  49  82 CALM      30.18S
$$

ILZ028>032-037-038-041>044-048-051>054-059>061-150500-
CENTRAL ILLINOIS

CITY           SKY/WX    TMP DP  RH WIND       PRES   REMARKS
PONTIAC        CLEAR     50  48  93 CALM      30.19R
DECATUR        CLEAR     54  46  74 S5        30.19S
PEORIA         PTCLDY    54  49  83 CALM      30.18S
LACON*         PTCLDY    49  47  92 CALM      30.17S
LINCOLN*       CLEAR     52  46  80 CALM      30.17S
SPRINGFIELD    CLEAR     52  47  83 CALM      30.19S
TAYLORVILLE    CLEAR     52  46  82 S3        30.19S
$$

ILZ033-039-045-046-055>057-062-063-150500-
EAST-CENTRAL ILLINOIS

CITY           SKY/WX    TMP DP  RH WIND       PRES   REMARKS
CHAMPAIGN      CLEAR     51  46  83 S5        30.20S
DANVILLE*      CLEAR     49  47  95 CALM      30.17F
RANTOUL*       CLEAR     54  45  69 CALM      30.20S
MATTOON        CLEAR     52  48  86 S5        30.18F
PARIS*         CLEAR     48  47  98 CALM      30.21F
$$

ILZ079-100>102-150500-
SOUTHWEST ILLINOIS

CITY           SKY/WX    TMP DP  RH WIND       PRES   REMARKS
ALTON          CLEAR     51  49  92 CALM      30.19S
CAHOKIA*       CLEAR     55  50  83 S5        30.18F
SPARTA*        CLEAR     52  49  91 CALM      30.21S
$$

ILZ064>066-069>071-074>076-080>082-084>086-088>090-092>094-150500-
SOUTH-CENTRAL ILLINOIS

CITY           SKY/WX    TMP DP  RH WIND       PRES   REMARKS
CARBONDALE     CLEAR     52  50  93 CALM      30.20F
CAIRO*         CLEAR     55  52  89 CALM      30.20S
EFFINGHAM*     CLEAR     50  47  91 CALM      30.20S
MARION         CLEAR     54  52  94 CALM      30.21S
MT. VERNON     CLEAR     50  45  81 CALM      30.21S
CENTRALIA*     CLEAR     49  47  93 CALM      30.20S
SALEM*         CLEAR     53  52  97 CALM      30.20S
METROPOLIS*    CLEAR     54  54 100 CALM      30.19F
$$

ILZ067-068-072-073-078-083-087-091-150500-
SOUTHEAST ILLINOIS

CITY           SKY/WX    TMP DP  RH WIND       PRES   REMARKS
LAWRENCEVILLE  CLEAR     51  49  92 N3        30.21S
FLORA*         CLEAR     49  48  96 CALM      30.21S
FAIRFIELD*     CLEAR    N/A N/A N/A CALM      30.21S
HARRISBURG*    CLEAR     52  52 100 CALM      30.22S
ROBINSON*      CLEAR     49  48  98 CALM      30.22S
CARMI*         CLEAR     52  51  99 CALM      30.21S
$$

ABBREVIATIONS USED IN REMARKS
   TC - TEMPERATURE IN CELSIUS
  WCI - WIND CHILL INDEX
   HX - HEAT INDEX
  VSB - VISIBILITY
$$




USA.gov is the U.S. government's official web portal to all federal, state and local government web resources and services.